TimeCDT,TemperatureF,Dew PointF,Humidity,Sea Level PressureIn,VisibilityMPH,Wind Direction,Wind SpeedMPH,Gust SpeedMPH,PrecipitationIn,Events,Conditions,WindDirDegrees,DateUTC
12:15 AM,26.6,24.8,93,30.09,10.0,SW,3.5,-,N/A,,Clear,220,2014-04-05 05:15:00
12:35 AM,24.8,24.8,100,30.09,10.0,Calm,Calm,-,N/A,,Clear,0,2014-04-05 05:35:00
12:55 AM,24.8,24.8,100,30.09,10.0,Calm,Calm,-,N/A,,Clear,0,2014-04-05 05:55:00
1:15 AM,24.8,23.0,93,30.09,10.0,SSW,4.6,-,N/A,,Clear,210,2014-04-05 06:15:00
1:35 AM,24.8,23.0,93,30.09,10.0,South,4.6,-,N/A,,Clear,190,2014-04-05 06:35:00
1:55 AM,24.8,23.0,93,30.09,10.0,South,5.8,-,N/A,,Clear,180,2014-04-05 06:55:00
2:15 AM,26.6,24.8,93,30.09,10.0,South,5.8,-,N/A,,Clear,190,2014-04-05 07:15:00
2:35 AM,26.6,24.8,93,30.08,10.0,South,5.8,-,N/A,,Clear,170,2014-04-05 07:35:00
2:55 AM,24.8,23.0,93,30.08,10.0,South,4.6,-,N/A,,Clear,170,2014-04-05 07:55:00
3:15 AM,24.8,23.0,93,30.08,10.0,South,5.8,-,N/A,,Clear,170,2014-04-05 08:15:00
3:35 AM,24.8,23.0,93,30.07,10.0,SSE,5.8,-,N/A,,Clear,160,2014-04-05 08:35:00
3:55 AM,24.8,23.0,93,30.07,10.0,SSE,5.8,-,N/A,,Clear,160,2014-04-05 08:55:00
4:15 AM,24.8,23.0,93,30.07,10.0,South,5.8,-,N/A,,Clear,170,2014-04-05 09:15:00
4:35 AM,24.8,23.0,93,30.07,10.0,South,5.8,-,N/A,,Clear,170,2014-04-05 09:35:00
4:55 AM,24.8,23.0,93,30.06,10.0,South,6.9,-,N/A,,Clear,180,2014-04-05 09:55:00
5:15 AM,24.8,23.0,93,30.07,10.0,South,5.8,-,N/A,,Clear,170,2014-04-05 10:15:00
5:35 AM,24.8,23.0,93,30.06,10.0,South,5.8,-,N/A,,Clear,170,2014-04-05 10:35:00
5:55 AM,24.8,23.0,93,30.06,10.0,SSE,6.9,-,N/A,,Clear,160,2014-04-05 10:55:00
6:15 AM,23.0,21.2,93,30.06,10.0,SSE,6.9,-,N/A,,Clear,150,2014-04-05 11:15:00
6:35 AM,23.0,21.2,93,30.07,10.0,South,6.9,-,N/A,,Clear,170,2014-04-05 11:35:00
6:55 AM,23.0,21.2,93,30.07,10.0,South,6.9,-,N/A,,Clear,170,2014-04-05 11:55:00
7:15 AM,23.0,21.2,93,30.07,10.0,South,8.1,-,N/A,,Clear,170,2014-04-05 12:15:00
7:35 AM,26.6,23.0,86,30.08,10.0,South,9.2,-,N/A,,Clear,180,2014-04-05 12:35:00
7:55 AM,26.6,24.8,93,30.08,10.0,South,9.2,-,N/A,,Clear,180,2014-04-05 12:55:00
8:15 AM,28.4,24.8,86,30.08,10.0,South,10.4,-,N/A,,Clear,170,2014-04-05 13:15:00
8:35 AM,30.2,26.6,86,30.08,10.0,South,11.5,-,N/A,,Clear,170,2014-04-05 13:35:00
8:55 AM,30.2,28.4,93,30.08,10.0,South,11.5,-,N/A,,Clear,180,2014-04-05 13:55:00
9:15 AM,32.0,28.4,87,30.08,10.0,South,13.8,19.6,N/A,,Clear,180,2014-04-05 14:15:00
9:35 AM,33.8,28.4,81,30.07,10.0,South,16.1,-,N/A,,Clear,190,2014-04-05 14:35:00
9:55 AM,33.8,28.4,81,30.07,10.0,South,15.0,-,N/A,,Clear,180,2014-04-05 14:55:00
10:15 AM,35.6,30.2,81,30.07,10.0,South,15.0,-,N/A,,Clear,180,2014-04-05 15:15:00
10:35 AM,35.6,30.2,81,30.07,10.0,South,15.0,21.9,N/A,,Clear,180,2014-04-05 15:35:00
10:55 AM,35.6,30.2,81,30.06,10.0,South,18.4,-,N/A,,Clear,180,2014-04-05 15:55:00
11:15 AM,37.4,30.2,75,30.06,10.0,South,18.4,-,N/A,,Clear,180,2014-04-05 16:15:00
11:35 AM,37.4,32.0,81,30.05,10.0,South,17.3,-,N/A,,Clear,180,2014-04-05 16:35:00
11:55 AM,39.2,32.0,75,30.05,10.0,South,18.4,-,N/A,,Clear,180,2014-04-05 16:55:00
12:15 PM,39.2,33.8,81,30.04,10.0,South,19.6,-,N/A,,Clear,180,2014-04-05 17:15:00
12:35 PM,41.0,33.8,76,30.03,10.0,South,19.6,-,N/A,,Clear,170,2014-04-05 17:35:00
12:55 PM,42.8,35.6,76,30.03,10.0,South,17.3,-,N/A,,Clear,170,2014-04-05 17:55:00
1:15 PM,42.8,35.6,76,30.02,10.0,South,19.6,-,N/A,,Clear,170,2014-04-05 18:15:00
1:35 PM,44.6,35.6,71,30.01,10.0,SSE,19.6,-,N/A,,Clear,160,2014-04-05 18:35:00
1:55 PM,44.6,35.6,71,30.00,10.0,South,21.9,-,N/A,,Clear,170,2014-04-05 18:55:00
2:15 PM,46.4,37.4,71,29.99,10.0,South,18.4,25.3,N/A,,Clear,170,2014-04-05 19:15:00
2:35 PM,46.4,37.4,71,29.98,10.0,South,19.6,27.6,N/A,,Clear,170,2014-04-05 19:35:00
2:55 PM,48.2,37.4,66,29.97,10.0,South,21.9,-,N/A,,Clear,170,2014-04-05 19:55:00
3:15 PM,50.0,37.4,62,29.97,10.0,SSE,21.9,-,N/A,,Clear,160,2014-04-05 20:15:00
3:35 PM,50.0,35.6,58,29.96,10.0,South,24.2,31.1,N/A,,Clear,170,2014-04-05 20:35:00
3:55 PM,50.0,37.4,62,29.95,10.0,SSE,23.0,-,N/A,,Clear,160,2014-04-05 20:55:00
4:15 PM,51.8,37.4,58,29.94,10.0,South,21.9,29.9,N/A,,Clear,170,2014-04-05 21:15:00
4:35 PM,51.8,37.4,58,29.93,10.0,SSE,20.7,28.8,N/A,,Clear,160,2014-04-05 21:35:00
4:55 PM,51.8,35.6,54,29.93,10.0,SSE,20.7,29.9,N/A,,Clear,160,2014-04-05 21:55:00
5:15 PM,51.8,37.4,58,29.92,10.0,South,23.0,29.9,N/A,,Clear,170,2014-04-05 22:15:00
5:35 PM,51.8,35.6,54,29.92,10.0,South,23.0,-,N/A,,Clear,170,2014-04-05 22:35:00
5:55 PM,51.8,35.6,54,29.92,10.0,South,17.3,26.5,N/A,,Clear,170,2014-04-05 22:55:00
6:15 PM,53.6,35.6,51,29.92,10.0,South,19.6,26.5,N/A,,Clear,170,2014-04-05 23:15:00
6:35 PM,53.6,35.6,51,29.92,10.0,South,16.1,-,N/A,,Clear,170,2014-04-05 23:35:00
6:55 PM,51.8,35.6,54,29.91,10.0,South,15.0,-,N/A,,Clear,170,2014-04-05 23:55:00
7:15 PM,50.0,35.6,58,29.91,10.0,SSE,15.0,-,N/A,,Clear,160,2014-04-06 00:15:00
7:35 PM,48.2,35.6,62,29.91,10.0,South,15.0,-,N/A,,Clear,170,2014-04-06 00:35:00
7:55 PM,48.2,33.8,58,29.91,10.0,South,15.0,20.7,N/A,,Clear,170,2014-04-06 00:55:00
8:15 PM,46.4,33.8,62,29.91,10.0,SSE,16.1,-,N/A,,Clear,160,2014-04-06 01:15:00
8:35 PM,46.4,32.0,57,29.91,10.0,SSE,13.8,-,N/A,,Partly Cloudy,160,2014-04-06 01:35:00
8:55 PM,44.6,32.0,61,29.91,10.0,SSE,15.0,-,N/A,,Mostly Cloudy,160,2014-04-06 01:55:00
9:15 PM,42.8,32.0,66,29.91,10.0,SSE,13.8,-,N/A,,Scattered Clouds,160,2014-04-06 02:15:00
9:35 PM,42.8,32.0,66,29.91,10.0,SSE,16.1,-,N/A,,Scattered Clouds,160,2014-04-06 02:35:00
9:55 PM,42.8,30.2,61,29.91,10.0,SSE,16.1,-,N/A,,Partly Cloudy,150,2014-04-06 02:55:00
10:15 PM,41.0,30.2,65,29.91,10.0,SSE,13.8,-,N/A,,Partly Cloudy,160,2014-04-06 03:15:00
10:35 PM,42.8,30.2,61,29.91,10.0,SSE,16.1,23.0,N/A,,Scattered Clouds,160,2014-04-06 03:35:00
10:55 PM,41.0,30.2,65,29.91,10.0,SSE,16.1,-,N/A,,Scattered Clouds,160,2014-04-06 03:55:00
11:15 PM,41.0,30.2,65,29.90,10.0,SSE,16.1,-,N/A,,Mostly Cloudy,160,2014-04-06 04:15:00
11:35 PM,41.0,30.2,65,29.90,10.0,South,16.1,21.9,N/A,,Overcast,170,2014-04-06 04:35:00
11:55 PM,39.2,30.2,70,29.90,10.0,South,13.8,20.7,N/A,,Overcast,170,2014-04-06 04:55:00